Temperature
20 20 19 19 18 18 18 17 17 17 17 16 16 16 16 15 15 15 15 15 15 15 15 14 14 14 14 14 14 14 14 14 14 14 14 14 14 14 14 14 13 13 13
20 20 19 18 18 18 18 17 17 17 16 16 16 16 15 15 15 15 15 15 15 14 14 14 14 14 14 14 14 14 14 14 14 14 14 14 14 14 14 14 13 13 13
20 19 19 18 18 18 17 17 17 16 16 16 16 15 15 15 15 15 15 15 14 14 14 14 14 14 14 14 14 14 14 14 13 14 14 14 13 13 13 13 13 13 13
20 20 19 18 18 17 17 17 17 16 16 16 15 15 15 15 15 15 15 14 14 14 14 14 14 14 13 13 13 13 13 13 13 13 14 14 14 13 13 13 13 13 13
20 20 19 18 18 17 17 17 16 16 16 16 15 15 15 15 15 14 14 14 14 14 14 14 14 13 13 13 13 13 13 13 13 13 13 13 14 14 13 13 13 13 13
20 19 19 18 18 17 17 17 16 16 16 15 15 15 15 15 15 14 14 14 14 14 14 14 13 13 13 13 13 13 13 13 13 13 13 13 13 13 13 13 13 13 13
19 19 18 18 17 17 17 16 16 16 15 15 15 15 15 14 14 14 14 14 14 14 14 14 13 13 13 13 13 13 13 13 13 13 13 13 13 13 13 13 13 13 12
19 18 18 17 17 17 16 16 16 15 15 15 15 15 14 14 14 14 14 14 14 14 14 14 13 13 13 13 13 13 13 13 13 13 13 13 13 13 13 13 13 12 12
18 18 17 17 16 16 16 16 15 15 15 15 15 15 15 14 14 14 14 14 14 14 14 14 13 13 13 13 13 13 12 12 12 13 13 13 12 13 12 12 12 12 12
18 18 17 16 16 16 16 16 15 15 15 15 14 14 14 14 14 14 14 14 14 14 14 14 13 13 13 13 13 13 12 12 12 12 12 12 12 12 12 12 12 12 12
18 17 17 16 16 16 15 15 15 15 15 15 14 14 14 14 14 14 14 14 14 13 13 13 13 13 13 13 13 13 12 12 12 12 12 12 12 12 12 12 12 12 12
18 17 17 16 16 15 15 15 15 15 15 14 14 14 14 14 14 14 14 14 13 13 13 13 13 13 13 13 13 12 12 12 12 12 12 12 12 12 12 12 12 12 12
17 17 16 16 15 15 15 15 14 14 14 14 14 14 14 13 13 13 13 13 13 13 13 13 13 13 13 12 12 12 12 12 12 12 12 12 12 12 12 11 11 11 11
17 17 16 16 15 15 15 14 14 14 14 13 13 13 13 13 13 13 13 13 13 13 13 13 13 12 12 12 12 12 12 12 12 12 12 11 11 11 11 11 11 11 11
17 17 16 15 15 14 14 14 14 13 13 13 13 13 13 13 13 12 12 12 12 12 12 12 12 12 12 12 12 12 12 11 11 11 11 11 11 11 11 11 11 11 11
17 16 16 15 15 14 14 13 13 13 13 13 12 12 12 12 12 12 12 12 12 12 12 12 12 12 12 12 11 11 11 11 11 11 11 11 11 11 11 11 11 11 11
17 16 15 15 14 14 14 13 13 13 13 12 12 12 12 12 12 12 12 11 11 11 12 12 11 11 11 11 11 11 11 11 11 11 10 10 10 10 10 11 11 10 10
16 15 15 14 14 14 13 13 13 12 12 12 12 11 11 11 11 11 11 11 11 11 11 11 11 11 11 11 11 11 10 10 10 10 10 10 10 10 10 10 10 10 10
15 15 14 14 14 13 13 13 12 12 12 11 11 11 11 11 10 10 10 10 10 10 11 11 11 10 10 10 10 10 10 10 10 10 10 10 10 10 10 10 10 10 10
14 14 13 13 13 13 12 12 12 11 11 11 11 10 10 10 10 10 10 10 10 10 10 10 10 10 10 10 10 10 10 10 9 9 9 9 9 9 9 9 9 9 9
13 13 13 13 13 12 12 12 11 11 11 11 10 10 10 10 10 10 10 9 9 9 9 9 9 9 9 9 9 9 9 9 9 9 9 9 9 9 9 9 9 9 9
13 12 12 12 12 12 11 11 11 11 11 10 10 10 10 9 9 9 9 9 9 9 9 8 9 9 9 9 9 9 9 8 8 8 8 8 8 8 8 8 8 8 8
12 12 12 11 11 11 11 11 11 10 10 10 10 9 9 9 9 9 9 8 8 8 8 8 8 8 8 8 8 8 8 8 8 8 8 8 8 8 8 8 8 8 8
12 11 11 11 11 11 10 10 10 10 10 9 9 9 9 8 8 8 8 8 8 8 8 8 8 8 8 8 8 8 8 8 7 7 7 7 7 7 7 7 7 7 7
11 11 11 10 10 10 10 10 10 10 9 9 9 8 8 8 8 8 8 8 8 8 8 8 7 7 7 7 7 7 7 7 7 7 7 7 7 7 7 7 7 7 7
11 10 10 10 10 10 10 10 9 9 9 8 8 8 8 8 7 7 7 7 7 7 7 7 7 7 7 7 7 7 7 7 6 6 6 6 6 6 6 6 6 7 7
Wind_Speed
6 6 7 6 5 5 5 6 5 5 4 3 2 3 2 2 3 2 3 4 4 4 4 2 3 3 2 2 3 2 2 2 1 2 1 1 2 3 2 3 3 4 5
7 6 7 6 5 5 5 6 5 5 5 3 3 2 3 2 2 2 2 3 3 3 3 2 3 3 2 3 3 2 1 2 2 1 1 1 1 1 2 2 2 2 3
7 8 7 6 5 5 6 5 6 6 5 5 3 3 2 1 1 1 1 2 2 3 3 2 2 2 2 2 1 1 2 1 2 2 1 1 0 1 1 1 2 2 2
5 6 6 6 5 5 5 6 6 6 6 6 4 4 3 2 2 2 2 2 2 2 2 2 2 1 2 2 0 1 0 1 1 1 2 1 2 1 0 1 1 2 2
5 6 6 6 5 5 4 4 5 5 5 5 5 4 3 2 2 2 3 2 2 2 2 2 1 1 2 1 1 1 1 0 0 0 1 1 1 0 1 1 0 0 1
5 5 5 5 4 5 5 4 4 4 4 4 5 4 3 2 2 2 1 1 1 1 1 2 1 1 1 1 1 1 0 0 0 0 0 0 0 0 1 1 1 1 1
5 5 5 4 4 5 4 4 4 5 4 4 4 4 4 3 3 3 2 2 1 1 1 1 1 1 1 1 1 0 1 1 0 1 0 0 1 0 0 0 1 0 0
5 5 5 4 4 4 4 4 4 4 5 4 4 4 4 3 2 3 2 3 2 2 2 2 2 2 2 1 1 0 1 1 1 0 0 0 1 0 0 1 1 0 1
5 5 5 4 4 4 4 4 4 4 4 4 3 3 4 3 3 3 2 2 2 3 3 2 2 2 2 2 2 1 1 0 1 1 1 1 1 1 0 1 1 2 1
6 6 5 4 3 3 3 4 4 4 4 3 3 2 2 3 2 2 2 2 2 2 2 2 2 2 2 2 1 1 0 1 1 1 1 1 1 1 0 0 1 1 2
5 5 5 4 3 3 2 3 4 4 3 3 3 2 2 2 2 2 2 2 2 3 3 3 2 2 2 2 1 1 1 1 1 1 2 2 1 1 1 1 1 1 1
3 4 4 4 3 2 2 2 3 3 3 2 2 2 2 2 2 1 2 2 2 2 3 2 2 2 2 2 2 2 1 1 2 2 2 2 2 2 1 1 2 2 2
4 4 4 4 3 2 2 2 2 2 2 2 2 2 2 1 1 1 1 1 1 1 2 1 2 2 2 2 2 2 2 2 2 2 2 2 2 2 1 1 2 2 2
4 4 3 3 3 2 2 2 2 2 2 2 2 2 1 1 1 1 1 1 1 1 1 2 1 1 2 2 2 2 2 2 2 2 1 2 2 2 2 2 2 2 2
4 4 3 3 3 2 2 2 2 2 2 2 2 2 2 1 1 1 1 1 1 1 1 1 1 1 1 1 1 2 2 2 1 1 2 2 2 3 3 2 2 2 1
4 3 3 4 3 3 2 2 2 1 1 2 2 1 1 2 1 1 1 1 1 1 1 1 1 1 1 1 0 1 1 2 2 2 2 2 2 2 3 3 3 4 4
2 3 3 3 3 2 2 2 2 2 2 1 1 1 1 1 1 0 1 0 0 0 1 0 1 1 1 1 1 1 1 2 2 2 2 2 1 1 2 2 3 3 4
1 2 2 2 3 3 2 2 2 2 2 2 1 1 1 1 1 1 1 1 1 0 1 1 1 1 2 2 2 2 2 1 2 2 2 2 2 2 2 2 2 2 2
1 2 1 1 1 2 2 2 2 2 2 2 1 1 1 1 1 1 1 1 1 1 1 1 1 1 2 2 2 2 1 1 2 2 2 1 1 1 2 2 2 2 2
2 2 1 1 1 1 2 2 2 2 2 2 1 1 1 2 2 2 2 1 1 2 2 1 1 2 2 2 2 2 1 1 2 2 2 2 1 1 1 2 2 2 3
2 2 2 1 1 1 0 1 1 1 1 1 1 1 1 2 2 2 2 2 2 2 2 2 2 2 2 2 2 2 1 1 2 2 2 1 1 0 1 1 2 3 3
1 1 1 1 1 1 1 1 1 1 1 1 1 1 1 2 1 1 2 2 2 2 2 2 2 2 2 2 2 3 3 2 2 2 2 1 1 2 2 2 2 3 2
1 0 0 1 1 1 1 1 1 1 1 1 1 2 2 1 2 2 2 2 2 2 2 2 2 2 1 1 2 3 3 3 2 2 2 2 2 2 2 2 3 2 1
2 1 1 2 1 1 1 1 1 1 1 1 1 1 1 1 1 1 2 2 2 2 2 2 2 2 1 1 1 1 2 2 2 1 2 2 3 2 3 2 2 2 2
1 1 2 2 2 1 1 1 1 1 1 1 1 1 1 1 1 1 2 2 3 3 3 3 3 3 3 3 2 2 2 2 2 1 1 1 2 2 1 1 2 2 2
1 1 1 2 2 2 2 1 1 1 2 1 1 1 1 1 1 1 2 3 3 4 4 5 4 3 4 4 4 4 4 4 3 2 2 3 3 3 3 3 3 3 3
Wind_Direction
162 146 136 136 142 140 137 132 133 128 114 106 100 103 105 99 90 87 79 76 66 69 77 84 84 79 72 68 59 63 58 38 48 66 58 77 94 101 88 73 77 85 95
154 140 139 145 154 150 148 140 138 131 123 122 121 125 118 118 112 114 102 93 77 70 75 79 86 92 81 64 56 52 47 14 22 64 84 64 41 29 109 105 99 93 83
162 156 153 149 157 159 159 152 143 138 133 129 123 116 106 104 105 133 118 108 94 79 73 75 91 106 104 104 100 69 63 4 344 29 77 101 105 340 47 124 112 106 95
168 155 153 156 160 159 155 153 152 150 143 137 141 148 150 162 169 154 144 147 109 100 96 81 89 105 98 112 137 91 38 93 337 340 9 70 128 127 354 339 100 123 121
161 151 152 156 156 150 145 147 150 147 141 148 150 158 153 161 149 140 144 148 146 144 123 107 97 98 102 117 92 71 31 82 141 221 342 6 15 159 148 227 269 39 149
139 134 131 129 136 135 142 148 145 136 136 147 153 167 167 169 143 143 160 152 144 146 122 107 105 109 104 108 109 104 109 15 2 295 139 129 48 269 126 195 213 219 208
141 128 120 123 128 143 146 152 156 154 160 171 170 172 169 172 171 168 172 160 151 156 162 131 158 141 152 139 128 143 204 213 250 267 248 219 262 214 71 143 233 202 225
126 122 119 125 126 131 146 157 164 166 167 174 179 175 169 171 172 173 172 173 177 179 169 171 176 164 162 133 134 175 237 216 214 269 328 309 304 130 165 180 153 344 300
126 123 124 125 130 136 148 160 167 162 161 172 185 179 171 169 170 183 168 162 176 165 159 171 155 146 143 150 153 180 231 205 220 209 234 257 269 269 212 187 181 170 208
133 126 122 127 133 145 155 159 156 153 159 170 178 172 170 169 168 168 164 179 186 152 162 168 154 153 161 150 141 172 218 192 220 202 220 236 247 237 192 226 268 187 182
136 131 127 123 124 126 137 153 155 152 152 159 167 168 170 168 167 177 179 186 185 164 170 173 169 172 158 160 165 192 194 216 246 232 218 229 225 203 209 201 222 245 178
121 124 127 127 122 121 120 122 142 140 141 144 141 150 151 152 155 175 169 169 182 165 167 178 171 170 159 164 170 205 209 225 246 240 222 227 217 214 210 192 209 221 212
145 125 116 119 120 127 131 120 121 128 138 136 132 119 126 145 155 160 132 179 199 166 163 172 173 179 174 173 188 195 214 217 228 230 229 232 211 212 209 202 217 222 221
146 137 128 127 123 128 132 134 127 126 130 137 132 126 147 163 156 154 151 201 204 183 178 178 189 203 187 171 196 201 220 232 228 225 238 242 219 210 204 211 216 213 209
160 157 147 145 141 144 145 139 125 121 138 142 144 162 171 145 124 125 156 174 197 221 217 180 188 228 216 194 189 213 217 227 244 244 241 235 214 207 204 209 205 195 207
163 165 161 161 156 159 164 149 143 132 123 131 153 151 148 139 133 148 146 142 184 199 207 206 202 226 262 313 303 267 237 239 234 240 241 238 222 198 203 208 204 202 206
156 165 167 164 160 168 163 168 163 157 141 129 119 105 129 138 137 105 36 84 236 203 173 241 214 215 224 208 206 262 266 265 261 248 248 261 231 181 183 203 213 218 221
103 122 143 155 164 171 161 165 166 163 154 140 134 139 154 159 166 168 189 254 265 261 224 238 254 252 255 226 227 242 260 262 280 276 258 250 242 193 194 195 184 214 224
49 68 96 125 139 152 155 165 170 169 157 153 172 191 172 167 181 199 234 249 264 274 257 237 242 251 252 229 224 210 229 229 261 278 284 259 259 206 209 189 206 223 231
64 76 77 84 93 121 151 174 173 166 159 163 192 208 182 189 210 208 217 239 239 249 257 261 254 251 247 234 216 201 217 227 259 270 273 263 251 260 222 201 208 240 244
61 71 86 83 96 98 151 189 165 174 153 145 183 208 202 226 222 210 226 233 226 237 250 261 265 253 240 225 208 201 217 234 252 262 261 251 251 236 235 256 218 245 258
77 73 84 82 100 135 174 187 210 161 125 132 184 229 240 248 245 214 227 231 232 232 237 237 257 260 241 226 210 207 222 252 255 257 252 234 256 245 244 262 273 278 279
151 144 222 211 216 187 183 194 250 154 140 162 218 241 250 247 216 209 227 235 228 224 234 231 240 259 253 231 214 216 228 249 267 275 283 263 252 261 251 245 260 264 245
171 189 219 233 235 234 240 199 197 202 181 191 229 239 245 302 304 233 217 219 225 231 241 241 246 258 261 247 217 205 229 236 255 286 290 277 247 240 234 248 257 238 229
164 198 231 242 246 238 262 246 207 208 220 215 237 252 235 257 273 256 249 236 228 224 228 233 235 234 247 244 257 254 240 231 229 252 268 258 247 232 230 228 231 236 245
191 215 236 250 259 246 251 254 230 218 233 230 230 235 255 242 256 272 304 304 270 252 245 238 236 248 252 256 255 260 268 259 237 235 239 240 229 222 220 220 226 226 224
Height
1507 1510 1511 1513 1515 1517 1518 1519 1521 1522 1523 1524 1525 1526 1527 1528 1529 1530 1531 1531 1532 1532 1533 1533 1533 1534 1534 1534 1534 1535 1535 1535 1535 1535 1535 1536 1536 1536 1537 1537 1537 1537 1537
1505 1507 1510 1511 1514 1515 1517 1518 1520 1521 1522 1523 1524 1526 1526 1528 1529 1530 1530 1531 1532 1532 1533 1533 1533 1534 1534 1534 1534 1535 1535 1535 1535 1535 1535 1536 1538 1537 1537 1537 1537 1537 1537
1503 1505 1508 1510 1512 1514 1515 1517 1518 1520 1521 1522 1524 1525 1526 1527 1528 1529 1530 1530 1531 1532 1532 1533 1533 1533 1534 1534 1534 1535 1535 1535 1535 1536 1536 1536 1536 1537 1538 1537 1537 1538 1538
1502 1503 1506 1508 1510 1512 1514 1515 1517 1519 1520 1521 1522 1524 1524 1526 1527 1528 1529 1530 1530 1531 1532 1532 1532 1533 1533 1533 1534 1534 1534 1535 1535 1535 1536 1536 1536 1536 1537 1538 1537 1537 1537
1500 1502 1504 1507 1508 1510 1512 1514 1516 1517 1518 1519 1521 1522 1524 1525 1526 1527 1528 1528 1529 1530 1531 1531 1532 1532 1532 1532 1533 1533 1533 1534 1534 1534 1534 1535 1535 1536 1536 1536 1537 1537 1537
1499 1501 1503 1505 1507 1508 1510 1511 1513 1515 1516 1518 1519 1521 1522 1524 1525 1525 1526 1527 1528 1529 1530 1530 1531 1531 1531 1531 1531 1532 1532 1532 1533 1533 1534 1534 1534 1535 1535 1535 1535 1536 1536
1498 1500 1502 1503 1505 1506 1508 1510 1511 1513 1515 1516 1518 1519 1521 1522 1523 1524 1525 1526 1526 1527 1528 1529 1529 1529 1529 1530 1530 1530 1531 1531 1531 1532 1532 1533 1533 1533 1534 1534 1534 1534 1535
1496 1498 1500 1502 1503 1505 1506 1508 1510 1511 1513 1515 1516 1518 1519 1520 1521 1522 1523 1524 1525 1526 1527 1527 1527 1528 1528 1528 1528 1528 1529 1529 1529 1530 1530 1531 1531 1531 1532 1533 1533 1533 1533
1496 1498 1500 1501 1502 1503 1505 1507 1508 1510 1511 1513 1514 1516 1517 1518 1519 1520 1521 1522 1523 1524 1525 1525 1526 1526 1526 1526 1527 1527 1527 1527 1528 1528 1528 1529 1529 1529 1530 1531 1531 1532 1531
1495 1497 1499 1501 1502 1503 1504 1505 1507 1508 1509 1511 1512 1513 1514 1516 1517 1518 1519 1520 1521 1522 1523 1523 1524 1524 1524 1524 1525 1525 1525 1526 1526 1526 1527 1527 1527 1527 1528 1528 1529 1530 1530
1494 1496 1498 1500 1501 1502 1503 1504 1505 1507 1508 1509 1510 1511 1512 1513 1515 1516 1517 1518 1519 1519 1520 1521 1521 1522 1522 1522 1522 1523 1523 1523 1524 1524 1525 1525 1525 1525 1526 1526 1527 1527 1528
1494 1496 1497 1498 1500 1501 1501 1502 1503 1504 1505 1507 1508 1509 1510 1511 1512 1513 1514 1515 1516 1517 1518 1519 1519 1519 1520 1520 1520 1520 1521 1521 1521 1522 1522 1522 1523 1523 1523 1524 1524 1525 1525
1493 1495 1496 1497 1498 1499 1500 1501 1502 1502 1503 1504 1505 1506 1507 1509 1510 1511 1512 1513 1514 1515 1515 1516 1517 1517 1517 1517 1518 1518 1518 1519 1519 1519 1519 1520 1520 1520 1521 1521 1521 1522 1522
1492 1493 1495 1496 1497 1498 1499 1499 1500 1501 1501 1502 1503 1504 1505 1506 1507 1508 1509 1510 1511 1512 1513 1513 1514 1514 1514 1514 1515 1515 1515 1516 1516 1516 1516 1517 1517 1517 1517 1518 1518 1519 1519
1490 1492 1493 1494 1495 1496 1497 1497 1498 1499 1500 1500 1501 1502 1503 1504 1505 1506 1507 1507 1508 1509 1510 1510 1510 1511 1511 1512 1512 1512 1512 1513 1513 1513 1513 1513 1514 1514 1514 1514 1515 1516 1516
1489 1490 1491 1493 1494 1494 1495 1495 1496 1497 1498 1498 1499 1500 1501 1502 1502 1503 1504 1505 1505 1506 1506 1507 1507 1508 1508 1509 1509 1509 1509 1509 1510 1510 1510 1510 1511 1511 1511 1511 1512 1512 1513
1487 1488 1490 1491 1492 1492 1493 1494 1494 1495 1496 1496 1497 1498 1499 1499 1500 1500 1501 1501 1502 1503 1503 1504 1504 1504 1505 1505 1505 1506 1506 1506 1506 1506 1507 1507 1508 1507 1508 1508 1508 1509 1509
1486 1487 1488 1489 1490 1490 1491 1492 1492 1493 1493 1494 1495 1495 1496 1497 1497 1497 1498 1498 1499 1499 1500 1500 1501 1501 1501 1502 1502 1502 1502 1503 1503 1503 1504 1504 1504 1504 1505 1505 1505 1505 1506
1484 1485 1486 1487 1488 1488 1489 1490 1490 1490 1491 1491 1492 1493 1493 1493 1494 1494 1495 1495 1495 1496 1496 1497 1497 1497 1497 1498 1498 1498 1498 1498 1499 1500 1500 1500 1501 1501 1501 1501 1501 1501 1502
1483 1483 1484 1485 1486 1486 1487 1487 1488 1488 1488 1489 1490 1490 1490 1491 1491 1491 1491 1492 1492 1492 1493 1493 1493 1494 1494 1494 1494 1495 1494 1494 1495 1495 1496 1497 1497 1498 1498 1498 1498 1498 1498
1481 1482 1482 1483 1483 1484 1484 1485 1485 1486 1486 1486 1487 1488 1488 1488 1488 1488 1488 1488 1488 1489 1489 1489 1489 1490 1490 1490 1491 1491 1491 1491 1491 1491 1492 1493 1493 1493 1494 1494 1494 1494 1495
1480 1480 1480 1481 1481 1482 1482 1482 1483 1483 1483 1483 1484 1484 1484 1485 1485 1485 1485 1485 1485 1485 1485 1485 1486 1486 1486 1487 1487 1487 1487 1487 1487 1487 1488 1488 1489 1489 1490 1490 1490 1491 1491
1479 1479 1479 1479 1479 1480 1480 1480 1480 1480 1481 1481 1481 1481 1481 1482 1482 1481 1481 1482 1482 1481 1481 1482 1482 1482 1482 1482 1483 1483 1483 1483 1483 1483 1484 1484 1485 1485 1485 1485 1486 1486 1487
1477 1477 1477 1477 1477 1478 1478 1478 1478 1478 1478 1478 1478 1478 1478 1478 1478 1478 1478 1478 1478 1478 1478 1478 1478 1478 1478 1478 1478 1478 1479 1479 1479 1479 1480 1480 1481 1481 1481 1481 1482 1482 1483
1475 1475 1475 1475 1475 1475 1475 1475 1475 1475 1475 1475 1475 1475 1475 1474 1474 1474 1474 1474 1474 1474 1474 1474 1474 1474 1473 1474 1474 1474 1474 1474 1475 1475 1476 1476 1476 1476 1476 1477 1477 1478 1479
1472 1472 1472 1472 1472 1472 1472 1471 1472 1472 1471 1471 1471 1471 1471 1471 1470 1470 1470 1470 1470 1470 1470 1470 1470 1470 1470 1470 1470 1470 1470 1470 1471 1471 1471 1471 1472 1472 1473 1473 1473 1474 1475